Location: Plainartige
(45.6866°N, 1.7993°E)
Time: 12:52:19
(UTC+00:00)

deb r/b Ablestar - Pass Details

Date: 28 September 2021
Orbit: 843 x 997 km, 67.7° (Epoch: 22 October)

Event Time Altitude Azimuth Distance (km) Brightness Sun altitude
Rises 22:23:28 0° 314° (NW) 3,420 ? -43.3°
Reaches altitude 10° 22:26:41 10° 296° (WNW) 2,492 ? -43.6°
Enters shadow 22:27:01 11° 294° (WNW) 2,416 ? -43.6°
